Regional Weather Roundup
Issued by NWS Upton, NY

Current Version | Previous Version | Graphics & Text | Print | Product List | Glossary Off
Versions: 1 2 3 4 5 6 7 8 9 10 11 12 13 14 15 16 17 18 19 20 21 22 23 24 25 26 27 28 29 30 31 32 33 34 35 36 37 38 39 40 41 42 43 44 45 46 47 48 49 50

776
ASUS41 KOKX 190608
RWROKX

REGIONAL WEATHER ROUNDUP
NATIONAL WEATHER SERVICE NEW YORK NY
100 AM EST SUN FEB 19 2017

NOTE: "FAIR" INDICATES FEW OR NO CLOUDS BELOW 12,000 FEET WITH NO
SIGNIFICANT WEATHER AND/OR OBSTRUCTIONS TO VISIBILITY.

NYZ071-072-176-178-NJZ106-104-190700-
NEW YORK CITY METRO AREA

CITY           SKY/WX    TMP DP  RH WIND       PRES   REMARKS
Central Park   CLOUDY    59  31  34 VRB6      29.69S
Wall St Helipt NOT AVBL
LaGuardia APRT MOCLDY    60  32  34 SW8       29.66S
Kennedy INTL   MOCLDY    54  35  48 W14       29.69R
Breezy Point     N/A     48 N/A N/A W9G15       N/A
Newark/Liberty CLOUDY    50  33  52 SW7       29.68R
Teterboro      CLOUDY    52  33  48 SW8       29.66S
$$

NYZ177-179-078>081-190700-
LONG ISLAND NEW YORK

CITY           SKY/WX    TMP DP  RH WIND       PRES   REMARKS
Jones Beach      N/A     52 N/A N/A W9G15       N/A
Matinecock PT  NOT AVBL
Farmingdale    MOCLDY    47  34  60 SW7       29.66S
MacArthur/ISP  MOCLDY    47  35  63 W8        29.65R
Shirley        PTCLDY    49  35  58 SW6       29.66R
Westhampton    PTCLDY    45  35  68 SW8       29.66R
Southampton    NOT AVBL
Bridgehampton  NOT AVBL
East Hampton     N/A     46  34  63 S3        29.63R
Montauk          N/A     50  35  56 SW3       29.63
$$

NYZ052-065-067-190700-
HUDSON VALLEY

CITY           SKY/WX    TMP DP  RH WIND       PRES   REMARKS
White Plains   CLOUDY    50  30  46 W3        29.65R
Newburgh       PTCLDY    41  34  75 W5        29.67R
Montgomery     CLOUDY    35  30  82 CALM      29.65R
Poughkeepsie   CLOUDY    38  30  73 SW12      29.64S WCI  30
Albany         PTCLDY    48  33  56 W5        29.65R
$$

NJZ001-105-106-008-010-013-015-019>022-104-190700-
NEW JERSEY

CITY           SKY/WX    TMP DP  RH WIND       PRES   REMARKS
Newark/Liberty CLOUDY    50  33  52 SW7       29.68R
Teterboro      CLOUDY    52  33  48 SW8       29.66S
Caldwell       PTCLDY    50  32  50 SW3       29.68S
Somerville     MOCLDY    37  30  75 CALM      29.69R
Linden         NOT AVBL
Sussex         CLOUDY    36  31  82 CALM      29.68R
Andover          N/A     40  32  73 S3        29.69R
Trenton        PTCLDY    52  33  48 SW6       29.72R
Millville      CLOUDY    56  37  49 W8        29.76S
Atlantic City  CLOUDY    59  33  37 W10       29.75R
Wrightstown    MOCLDY    54  36  51 W8        29.71R
Toms River     CLOUDY    54  36  50 SW8       29.74R
Belmar         PTCLDY    54  35  48 SW9       29.72R
$$

PAZ047>061-062-071-190700-
EASTERN PENNSYLVANIA

CITY           SKY/WX    TMP DP  RH WIND       PRES   REMARKS
Philadelphia   CLOUDY    50  37  61 SW5       29.75S
Allentown      CLOUDY    48  32  53 SW7       29.72R
Scranton       CLOUDY    53  33  46 SW9       29.71R
$$

CTZ002-004>006-009-010-012-RIZ004-006-007-MAZ004-011-015-190700-
SOUTHERN NEW ENGLAND
 IN CT

CITY           SKY/WX    TMP DP  RH WIND       PRES   REMARKS
Bradley INTL   PTCLDY    38  31  76 W5        29.60S WCI  34
Hartford       CLEAR     40  32  73 CALM      29.60S
Danbury        CLOUDY    35  30  82 SW3       29.65R
Wtrbury/Oxford CLOUDY    52  30  43 W6        29.63R
Bridgeport     CLOUDY    49  33  54 W7        29.63S
Meriden        CLOUDY    33  28  81 CALM      29.62R
New Haven      CLOUDY    49  34  56 SW3       29.62S
Chester        NOT AVBL
Groton         CLOUDY    48  33  56 SW6       29.61S
Wilimantic     CLEAR     52  32  46 SW5       29.59S

 IN RI

CITY           SKY/WX    TMP DP  RH WIND       PRES   REMARKS
Providence     CLEAR     38  32  79 S8        29.59S WCI  32
Block Island   CLOUDY    43  38  82 SW14      29.63R
Westerly       CLOUDY    46  34  62 SW5       29.61S
 IN MA

CITY           SKY/WX    TMP DP  RH WIND       PRES   REMARKS
Boston         CLEAR     45  33  63 SW14      29.53F
Worcester      CLEAR     50  30  46 W22G30    29.54S
Westfield      CLEAR     31  28  89 CALM      29.59S
Provincetown   CLEAR     42  36  79 SW14      29.56F
Nantucket      CLOUDY    44  38  79 W17       29.61S
$$

ANZ330-335-338-340-345-350-353-355-190700-
COASTAL MARINE OBSERVATIONS


STATION/POSITION TIME  SKY/WX   TEMP    WIND        PRES    VSBY  WAVE
                                AIR SEA DIR/SP/G                  HT/PER
                 (UTC)          (F)     (DEG/KT/KT) (MB)    (MI)  (FT/S)
NY HARB ENTRANCE 0450            48 42  250/  8/ 10 1004.6          2/ 4
20 S FIRE ISLAND 0550            46 40  230/ 16/ 17 1004.7          3/ 5
GREAT SOUTH BAY  NOT AVBL
23 SSW MONTAUK P 0450            49 44              1003.9          5/ 6
15 E BARNEGAT LI 0530               42                N/A           3/ 5
HUDSON CANYON    0450               51              1005.8          4/ 5
KINGS POINT      0536            56 38              1004.2
EXECUTION ROCKS  NOT AVBL
CENTRAL LI SOUND 0530            46     270/ 12/ 16   N/A           1/ 3
EASTERN LI SOUND NOT AVBL
ROBBINS REEF     0536            56     250/ 16/ 17 1005.0
$$


>>>>>>>>>>>>>>>>>>>>>>>>>>>> KEY <<<<<<<<<<<<<<<<<<<<<<<<<<<
>                                                          <
>     SKY/WX - Sky Condition/Present Weather               <
>     TMP    - Temperature in Fahrenheit                   <
>     DP     - Dew Point in Fahrenheit                     <
>     RH     - Relative Humidity in Percent                <
>     WIND   - Direction (from) and Speed in MPH           <
>     PRES   - Mean Sea Level Pressure (inches of Hg)      <
>     WCI    - Wind Chill Index                            <
>     VSB    - VISIBILITY IN MILES                         <
>     HX     - HEAT INDEX                                  <
>     TC     - TEMPERATURE IN CELSIUS                      <
>     VRB    - VARIABLE WIND DIRECTION                     <
>                                                          <
>>>>>>>>>>>>>>>>>>>>>>>>>>>> KEY <<<<<<<<<<<<<<<<<<<<<<<<<<<




USA.gov is the U.S. government's official web portal to all federal, state and local government web resources and services.